This is the latest recevied weather packets stored in our database for station/object KC4JY. If no packets are shown the sender has not sent any weather packets the latest 10 day(s).
| Time | Temp. | Humidity | Pressure | Rain* | Wind** | Luminosity | Snow |
|---|---|---|---|---|---|---|---|
| 1777751137 | 11.67° C | 93% | 1010.7 hPa | 0.76 mm | - | - | - |
| 1777750236 | 11.67° C | 93% | 1010.9 hPa | 1.02 mm | - | - | - |
| 1777749316 | 11.67° C | 93% | 1011.3 hPa | 1.02 mm | - | - | - |
| 1777748415 | 11.67° C | 92% | 1010.9 hPa | 1.27 mm | - | - | - |
| 1777747566 | 11.67° C | 92% | 1011.1 hPa | 1.78 mm | - | - | - |
| 1777746664 | 11.67° C | 92% | 1011.3 hPa | 1.52 mm | - | - | - |
| 1777745737 | 11.67° C | 92% | 1011.5 hPa | 1.27 mm | - | - | - |
| 1777744838 | 12.22° C | 92% | 1012 hPa | 1.02 mm | - | - | - |
| 1777743917 | 11.67° C | 91% | 1011.9 hPa | 0.51 mm | - | - | - |
| 1777743022 | 11.67° C | 91% | 1011.6 hPa | 1.27 mm | - | - | - |
| 1777742158 | 12.22° C | 92% | 1011.1 hPa | 1.78 mm | - | - | - |
| 1777741257 | 12.22° C | 92% | 1011.7 hPa | 2.29 mm | - | - | - |
| 1777740361 | 12.22° C | 92% | 1012.5 hPa | 2.03 mm | - | - | - |
| 1777739450 | 12.22° C | 92% | 1012.6 hPa | 1.52 mm | - | - | - |
| 1777738520 | 12.78° C | 91% | 1013 hPa | 0.76 mm | - | - | - |
| 1777737626 | 12.78° C | 91% | 1012.4 hPa | 0.51 mm | - | - | - |
| 1777736701 | 12.78° C | 92% | 1012.3 hPa | 0.76 mm | - | - | - |
| 1777735861 | 12.78° C | 91% | 1012.3 hPa | 0.76 mm | - | - | - |
| 1777734941 | 12.78° C | 91% | 1012.3 hPa | 1.02 mm | - | - | - |
| 1777734043 | 12.78° C | 91% | 1012.6 hPa | 0.76 mm | - | - | - |
| 1777733122 | 12.78° C | 91% | 1012.5 hPa | 0.76 mm | - | - | - |
| 1777732242 | 12.78° C | 91% | 1012.4 hPa | 0.51 mm | - | - | - |
| 1777731315 | 12.78° C | 90% | 1012.4 hPa | 0.76 mm | - | - | - |
| 1777730405 | 12.78° C | 90% | 1012 hPa | 1.02 mm | - | - | - |
| 1777729552 | 12.78° C | 89% | 1011.8 hPa | 0.76 mm | - | - | - |
* Rain latest hour (hover to see other rain measurements)
** Current wind speed in m/s (hover to see current wind gust speed)